スワン彗星

C/2006 M4 ( SWAN )

English version
Home page
Updated on September 21, 2007

---------------------------------------------------------------------

・ プロフィール

発見日 2006年6月20日
発見光度 12等
発見者 R. D. Matson (Irvine, CA), M. Mattiazzo (Adelaide, S. Australia)

・ 写真集

・ 軌道要素

The following orbital elements are taken from MPC 59875:

Epoch 2006 Sept. 22.0 TT = JDT 2454000.5
T 2006 Sept. 28.7284 TT                                 MPC
q   0.783007             (2000.0)            P               Q
z  -0.000237       Peri.   62.5940      -0.2220897      +0.8476024
 +/-0.000002       Node   148.7266      +0.1502009      -0.4586219
e   1.000186       Incl.  111.8234      +0.9633877      +0.2669010
From 1194 observations 2006 July 12-2007 May 19, mean residual 0".7.

・ 星図

・ 光度変化

        m1 = 6.8 + 5 logΔ + 12.0 log r(t - 10)  [  ,26]  (              〜2006年10月24日)
        m1 = 5.2 + 5 logΔ + 27.5 log r          [26,40]  (2006年10月24日〜2006年11月 7日)
        m1 = 6.4 + 5 logΔ + 12.0 log r(t - 10)  [40,95]  (2006年11月 7日〜2007年 1月 1日)
        m1 = 5.2 + 5 logΔ + 15.0 log r          [95,  ]  (2007年 1月 1日〜              )

---------------------------------------------------------------------

軌道要素はMPCのEphemerides and Orbital Elementsに掲載されたものです。
星図は StellaNavigator Ver.2.0 for Windows (アストロアーツ 編著 / アスキー出版局刊) で作成したものです。
光度グラフはComet for Windowsで作成したものです。

---------------------------------------------------------------------

Copyright(C) Seiichi Yoshida (comet@aerith.net). All rights reserved.